LXFUN ELLX-ELLX

Flight info

Callsign LXFUN
Flight time 0h 9m
Altitude 2000
Route VFR
Aircraft C172/L-SDY/C

Departure

Time 2026-05-05 16:36
Airport Luxembourg-Findel International Airport (ELLX)

Arrival

Time 2026-05-05 16:45
Airport Luxembourg-Findel International Airport (ELLX)
Time Latitude Longitude Altitude Speed Heading
2026-05-05 16:35 49.62664 6.21193 1231 ft 70 kts 240°
2026-05-05 16:35 49.62385 6.20480 1324 ft 80 kts 242°
2026-05-05 16:36 49.62094 6.19746 1535 ft 78 kts 239°
2026-05-05 16:36 49.61807 6.19004 1709 ft 83 kts 242°
2026-05-05 16:36 49.61456 6.18279 1893 ft 85 kts 215°
2026-05-05 16:36 49.60894 6.18170 2039 ft 88 kts 160°
2026-05-05 16:37 49.60478 6.18872 2104 ft 92 kts 116°
2026-05-05 16:37 49.60370 6.19819 2158 ft 90 kts 86°
2026-05-05 16:37 49.60444 6.20809 2190 ft 91 kts 79°
2026-05-05 16:37 49.60620 6.21746 2155 ft 92 kts 69°
2026-05-05 16:38 49.60857 6.22656 2139 ft 90 kts 67°
2026-05-05 16:38 49.61109 6.23525 2138 ft 88 kts 62°
2026-05-05 16:38 49.61464 6.24310 2155 ft 91 kts 48°
2026-05-05 16:38 49.61921 6.24963 2156 ft 90 kts 35°
2026-05-05 16:39 49.62488 6.25351 2143 ft 89 kts
2026-05-05 16:39 49.63107 6.25233 2092 ft 92 kts 340°
2026-05-05 16:39 49.63578 6.24663 1930 ft 90 kts 294°
2026-05-05 16:39 49.63596 6.23717 1707 ft 91 kts 248°
2026-05-05 16:40 49.63290 6.22850 1477 ft 94 kts 240°
2026-05-05 16:40 49.62959 6.21986 1284 ft 92 kts 241°
2026-05-05 16:40 49.62670 6.21206 1231 ft 76 kts 240°
2026-05-05 16:40 49.62392 6.20480 1282 ft 86 kts 238°
2026-05-05 16:41 49.62104 6.19725 1465 ft 81 kts 243°
2026-05-05 16:41 49.61830 6.18993 1620 ft 77 kts 242°
2026-05-05 16:41 49.61504 6.18330 1748 ft 77 kts 213°
2026-05-05 16:41 49.61001 6.18307 1886 ft 77 kts 153°
2026-05-05 16:42 49.60577 6.18906 1987 ft 91 kts 131°
2026-05-05 16:42 49.60348 6.19784 2145 ft 87 kts 97°
2026-05-05 16:42 49.60343 6.20722 2155 ft 89 kts 86°
2026-05-05 16:42 49.60452 6.21661 2164 ft 89 kts 74°
2026-05-05 16:43 49.60654 6.22572 2155 ft 89 kts 67°
2026-05-05 16:43 49.60933 6.23412 2159 ft 90 kts 57°
2026-05-05 16:43 49.61327 6.24184 2190 ft 91 kts 47°
2026-05-05 16:43 49.61799 6.24824 2199 ft 93 kts 33°
2026-05-05 16:44 49.62391 6.25167 2208 ft 91 kts
2026-05-05 16:44 49.63020 6.25046 2103 ft 94 kts 337°
2026-05-05 16:44 49.63512 6.24398 1931 ft 99 kts 297°
2026-05-05 16:44 49.63459 6.23349 1552 ft 109 kts 242°
2026-05-05 16:45 49.63080 6.22309 1238 ft 106 kts 240°
2026-05-05 16:45 49.62773 6.21487 1223 ft 56 kts 239°
2026-05-05 16:45 49.62675 6.21227 1231 ft 19 kts 240°
2026-05-05 16:45 49.62717 6.21161 1231 ft 14 kts 29°
2026-05-05 16:46 49.62802 6.21236 1229 ft 15 kts 30°
2026-05-05 16:46 49.62906 6.21327 1226 ft 13 kts 23°
2026-05-05 16:46 49.62948 6.21246 1228 ft 11 kts 271°
2026-05-05 16:46 49.62921 6.21142 1230 ft 10 kts 244°
2026-05-05 16:47 49.62894 6.21056 1233 ft 10 kts 243°
2026-05-05 16:47 49.62877 6.20999 1236 ft 11 kts 245°
2026-05-05 16:47 49.62838 6.20873 1236 ft 15 kts 245°
2026-05-05 16:47 49.62783 6.20731 1236 ft 16 kts 225°
2026-05-05 16:48 49.62691 6.20616 1235 ft 17 kts 217°
2026-05-05 16:48 49.62595 6.20459 1234 ft 29 kts 230°
2026-05-05 16:48 49.62460 6.20179 1225 ft 33 kts 240°
2026-05-05 16:48 49.62336 6.19847 1213 ft 41 kts 240°
2026-05-05 16:49 49.62241 6.19593 1199 ft 20 kts 240°
2026-05-05 16:49 49.62235 6.19509 1194 ft 10 kts 329°
2026-05-05 16:49 49.62276 6.19506 1195 ft 6 kts 59°
2026-05-05 16:49 49.62300 6.19570 1198 ft 8 kts 59°
2026-05-05 16:50 49.62336 6.19615 1200 ft 9 kts 332°
2026-05-05 16:50 49.62363 6.19561 1198 ft 7 kts 241°
2026-05-05 16:50 49.62329 6.19469 1195 ft 9 kts 240°
2026-05-05 16:50 49.62302 6.19490 1195 ft 17 kts 57°
2026-05-05 16:51 49.62344 6.19580 1198 ft 0 kts 346°